QPF
0.01 0.01 0.02 0.02 0.01 0.00 0.00 0.00 0.01 0.00 0.00 0.00 0.00 0.00 0.00 0.00 0.00 0.00 0.00 0.00 0.00 0.00 0.00 0.00 0.01 0.01 0.01 0.01 0.02 0.03 0.04 0.05 0.09 0.12 0.13 0.12 0.12 0.11 0.11 0.08 0.04 0.04 0.06
0.00 0.00 0.01 0.01 0.01 0.00 0.00 0.00 0.00 0.00 0.00 0.00 0.00 0.00 0.00 0.00 0.00 0.00 0.00 0.00 0.00 0.00 0.00 0.00 0.00 0.01 0.01 0.01 0.02 0.03 0.04 0.06 0.12 0.16 0.16 0.12 0.12 0.11 0.12 0.07 0.04 0.06 0.05
0.00 0.00 0.01 0.01 0.01 0.00 0.00 0.00 0.00 0.00 0.00 0.00 0.00 0.00 0.00 0.00 0.00 0.00 0.00 0.00 0.00 0.01 0.00 0.00 0.01 0.01 0.01 0.01 0.02 0.02 0.03 0.08 0.14 0.18 0.15 0.07 0.09 0.10 0.10 0.08 0.06 0.06 0.05
0.01 0.01 0.01 0.01 0.01 0.00 0.00 0.00 0.00 0.00 0.00 0.00 0.00 0.00 0.00 0.00 0.00 0.00 0.00 0.00 0.00 0.01 0.01 0.01 0.01 0.01 0.01 0.01 0.02 0.02 0.03 0.06 0.10 0.10 0.05 0.05 0.06 0.07 0.07 0.07 0.04 0.06 0.05
0.04 0.02 0.01 0.01 0.00 0.00 0.01 0.00 0.00 0.00 0.00 0.00 0.00 0.00 0.00 0.00 0.00 0.00 0.00 0.00 0.00 0.01 0.01 0.00 0.01 0.01 0.01 0.01 0.02 0.03 0.05 0.09 0.09 0.04 0.03 0.05 0.05 0.04 0.05 0.05 0.04 0.04 0.03
0.07 0.03 0.02 0.01 0.00 0.00 0.00 0.00 0.00 0.00 0.00 0.00 0.00 0.00 0.00 0.00 0.00 0.00 0.00 0.00 0.01 0.01 0.01 0.00 0.00 0.01 0.01 0.02 0.03 0.03 0.05 0.08 0.06 0.01 0.01 0.03 0.04 0.03 0.04 0.04 0.04 0.04 0.03
0.05 0.02 0.02 0.01 0.01 0.01 0.00 0.00 0.00 0.00 0.00 0.00 0.00 0.00 0.00 0.00 0.00 0.00 0.00 0.00 0.00 0.01 0.01 0.00 0.00 0.01 0.01 0.02 0.03 0.04 0.06 0.07 0.02 0.01 0.01 0.01 0.02 0.02 0.03 0.03 0.04 0.03 0.02
0.05 0.02 0.02 0.02 0.01 0.01 0.01 0.00 0.00 0.01 0.00 0.00 0.00 0.00 0.01 0.01 0.01 0.01 0.00 0.00 0.01 0.01 0.00 0.00 0.00 0.00 0.01 0.02 0.03 0.05 0.06 0.04 0.01 0.01 0.01 0.01 0.03 0.03 0.03 0.03 0.03 0.02 0.01
0.06 0.04 0.02 0.02 0.02 0.01 0.01 0.01 0.01 0.01 0.01 0.01 0.01 0.01 0.01 0.01 0.01 0.01 0.01 0.01 0.01 0.01 0.01 0.01 0.01 0.00 0.00 0.01 0.02 0.05 0.06 0.05 0.01 0.01 0.00 0.01 0.03 0.04 0.04 0.03 0.03 0.03 0.01
0.09 0.06 0.04 0.03 0.02 0.01 0.01 0.01 0.01 0.01 0.01 0.01 0.01 0.01 0.01 0.02 0.02 0.02 0.02 0.02 0.02 0.02 0.02 0.02 0.02 0.01 0.01 0.02 0.02 0.04 0.06 0.05 0.01 0.01 0.01 0.01 0.03 0.05 0.05 0.05 0.03 0.02 0.02
0.12 0.08 0.07 0.05 0.02 0.01 0.01 0.01 0.02 0.01 0.01 0.01 0.01 0.02 0.03 0.01 0.01 0.02 0.02 0.04 0.05 0.04 0.04 0.03 0.04 0.04 0.02 0.01 0.02 0.02 0.03 0.02 0.01 0.01 0.00 0.01 0.03 0.06 0.07 0.05 0.03 0.02 0.02
0.12 0.07 0.06 0.06 0.03 0.02 0.01 0.01 0.01 0.01 0.01 0.00 0.01 0.02 0.01 0.01 0.01 0.01 0.03 0.05 0.07 0.07 0.06 0.07 0.07 0.05 0.03 0.01 0.01 0.02 0.02 0.02 0.02 0.01 0.01 0.02 0.04 0.06 0.08 0.06 0.04 0.04 0.03
0.10 0.09 0.06 0.05 0.03 0.02 0.01 0.01 0.00 0.00 0.00 0.00 0.00 0.01 0.01 0.01 0.01 0.01 0.01 0.03 0.05 0.06 0.06 0.06 0.06 0.03 0.02 0.01 0.01 0.01 0.01 0.02 0.02 0.01 0.01 0.03 0.04 0.07 0.08 0.07 0.05 0.05 0.03
0.09 0.06 0.06 0.06 0.04 0.02 0.02 0.01 0.01 0.01 0.00 0.00 0.00 0.01 0.01 0.00 0.01 0.00 0.01 0.01 0.02 0.02 0.03 0.03 0.03 0.02 0.03 0.04 0.02 0.01 0.02 0.04 0.02 0.01 0.01 0.03 0.04 0.07 0.08 0.08 0.07 0.08 0.07
0.14 0.11 0.10 0.08 0.06 0.05 0.04 0.02 0.01 0.01 0.01 0.01 0.01 0.01 0.01 0.01 0.02 0.02 0.02 0.03 0.01 0.01 0.02 0.03 0.03 0.03 0.05 0.05 0.03 0.02 0.03 0.04 0.03 0.02 0.02 0.03 0.05 0.07 0.08 0.08 0.08 0.09 0.10
0.28 0.23 0.18 0.15 0.13 0.11 0.08 0.05 0.03 0.02 0.02 0.02 0.01 0.01 0.01 0.01 0.01 0.02 0.01 0.01 0.01 0.01 0.01 0.02 0.02 0.03 0.03 0.03 0.03 0.02 0.02 0.02 0.03 0.02 0.02 0.03 0.06 0.07 0.08 0.09 0.10 0.10 0.10
0.36 0.31 0.26 0.24 0.24 0.20 0.13 0.10 0.07 0.04 0.03 0.02 0.02 0.02 0.01 0.01 0.00 0.00 0.00 0.00 0.01 0.00 0.01 0.01 0.01 0.01 0.02 0.02 0.03 0.02 0.02 0.02 0.03 0.02 0.03 0.03 0.05 0.06 0.07 0.10 0.11 0.12 0.11
0.39 0.32 0.31 0.24 0.26 0.27 0.20 0.13 0.11 0.07 0.05 0.03 0.03 0.02 0.01 0.00 0.00 0.00 0.00 0.00 0.00 0.00 0.00 0.01 0.01 0.01 0.02 0.02 0.03 0.03 0.03 0.03 0.03 0.04 0.06 0.04 0.04 0.04 0.06 0.10 0.11 0.11 0.13
0.43 0.36 0.29 0.29 0.26 0.25 0.24 0.15 0.10 0.08 0.05 0.04 0.03 0.02 0.01 0.00 0.00 0.00 0.00 0.00 0.00 0.00 0.00 0.01 0.01 0.01 0.01 0.01 0.02 0.04 0.04 0.03 0.04 0.03 0.05 0.03 0.03 0.03 0.03 0.05 0.08 0.08 0.11
0.48 0.43 0.33 0.31 0.30 0.23 0.19 0.15 0.09 0.07 0.05 0.04 0.02 0.01 0.01 0.00 0.00 0.00 0.00 0.00 0.00 0.00 0.01 0.01 0.01 0.00 0.00 0.00 0.01 0.02 0.02 0.02 0.03 0.02 0.02 0.02 0.01 0.02 0.02 0.03 0.03 0.04 0.07
0.48 0.48 0.37 0.32 0.26 0.18 0.13 0.12 0.08 0.06 0.03 0.03 0.02 0.01 0.01 0.00 0.00 0.00 0.00 0.00 0.00 0.00 0.00 0.00 0.00 0.00 0.00 0.00 0.00 0.01 0.01 0.02 0.01 0.01 0.00 0.01 0.01 0.01 0.01 0.02 0.01 0.01 0.02
0.38 0.40 0.37 0.29 0.21 0.13 0.11 0.10 0.09 0.06 0.03 0.02 0.02 0.01 0.01 0.00 0.00 0.00 0.01 0.00 0.00 0.00 0.00 0.00 0.00 0.00 0.00 0.00 0.00 0.01 0.01 0.01 0.00 0.00 0.00 0.00 0.00 0.00 0.00 0.01 0.01 0.01 0.01
0.28 0.27 0.27 0.24 0.21 0.15 0.13 0.11 0.09 0.05 0.03 0.02 0.02 0.01 0.00 0.00 0.00 0.00 0.00 0.00 0.00 0.00 0.00 0.00 0.00 0.00 0.00 0.00 0.00 0.00 0.00 0.00 0.00 0.00 0.00 0.00 0.00 0.00 0.00 0.00 0.00 0.00 0.00
0.16 0.17 0.16 0.18 0.19 0.15 0.12 0.08 0.06 0.04 0.02 0.01 0.01 0.01 0.00 0.00 0.00 0.00 0.00 0.00 0.00 0.00 0.01 0.00 0.00 0.00 0.00 0.00 0.00 0.00 0.00 0.00 0.00 0.00 0.00 0.00 0.00 0.00 0.00 0.00 0.00 0.00 0.00
0.10 0.11 0.12 0.17 0.18 0.14 0.10 0.07 0.05 0.04 0.03 0.01 0.01 0.00 0.00 0.00 0.00 0.00 0.00 0.00 0.00 0.00 0.00 0.00 0.00 0.00 0.00 0.00 0.00 0.00 0.00 0.00 0.00 0.00 0.00 0.00 0.00 0.00 0.00 0.00 0.00 0.00 0.00
0.07 0.09 0.11 0.14 0.15 0.12 0.10 0.08 0.05 0.03 0.03 0.02 0.01 0.01 0.00 0.00 0.00 0.00 0.00 0.00 0.00 0.00 0.00 0.00 0.00 0.00 0.00 0.00 0.00 0.00 0.00 0.00 0.00 0.00 0.00 0.00 0.00 0.00 0.00 0.00 0.00 0.00 0.00
MSLP
1011.44 1011.20 1011.18 1011.36 1011.70 1012.11 1012.50 1012.82 1013.03 1013.13 1013.17 1013.20 1013.27 1013.42 1013.66 1013.97 1014.32 1014.65 1014.94 1015.15 1015.28 1015.36 1015.41 1015.46 1015.53 1015.63 1015.76 1015.90 1016.04 1016.16 1016.25 1016.32 1016.38 1016.46 1016.56 1016.71 1016.89 1017.09 1017.31 1017.52 1017.70 1017.86 1018.00
1011.11 1010.98 1011.05 1011.32 1011.72 1012.18 1012.61 1012.96 1013.19 1013.32 1013.39 1013.45 1013.55 1013.73 1014.00 1014.33 1014.68 1015.00 1015.27 1015.45 1015.56 1015.62 1015.65 1015.69 1015.75 1015.85 1015.98 1016.12 1016.25 1016.36 1016.45 1016.52 1016.60 1016.69 1016.82 1016.98 1017.18 1017.41 1017.63 1017.85 1018.04 1018.21 1018.35
1010.77 1010.75 1010.92 1011.27 1011.74 1012.24 1012.71 1013.09 1013.36 1013.52 1013.62 1013.71 1013.84 1014.05 1014.32 1014.65 1014.98 1015.27 1015.50 1015.66 1015.74 1015.77 1015.79 1015.83 1015.90 1016.00 1016.13 1016.26 1016.40 1016.51 1016.61 1016.70 1016.80 1016.93 1017.08 1017.27 1017.49 1017.72 1017.95 1018.16 1018.35 1018.52 1018.68
1010.48 1010.57 1010.83 1011.25 1011.77 1012.32 1012.83 1013.23 1013.52 1013.71 1013.84 1013.96 1014.12 1014.33 1014.60 1014.91 1015.21 1015.46 1015.66 1015.78 1015.83 1015.86 1015.88 1015.92 1015.99 1016.10 1016.23 1016.37 1016.51 1016.64 1016.76 1016.88 1017.02 1017.18 1017.37 1017.58 1017.80 1018.03 1018.25 1018.45 1018.64 1018.82 1018.99
1010.30 1010.48 1010.81 1011.29 1011.86 1012.44 1012.96 1013.38 1013.69 1013.90 1014.05 1014.19 1014.36 1014.58 1014.84 1015.12 1015.38 1015.60 1015.76 1015.85 1015.90 1015.92 1015.95 1016.00 1016.08 1016.20 1016.34 1016.49 1016.64 1016.78 1016.93 1017.08 1017.25 1017.45 1017.67 1017.90 1018.13 1018.35 1018.55 1018.73 1018.91 1019.08 1019.27
1010.26 1010.50 1010.89 1011.41 1012.00 1012.58 1013.10 1013.52 1013.84 1014.06 1014.23 1014.39 1014.57 1014.79 1015.04 1015.29 1015.53 1015.72 1015.85 1015.94 1015.98 1016.01 1016.06 1016.13 1016.22 1016.35 1016.49 1016.64 1016.79 1016.94 1017.11 1017.29 1017.50 1017.73 1017.98 1018.22 1018.45 1018.66 1018.84 1019.00 1019.15 1019.32 1019.51
1010.36 1010.64 1011.07 1011.60 1012.18 1012.74 1013.24 1013.65 1013.95 1014.18 1014.36 1014.54 1014.74 1014.97 1015.22 1015.47 1015.69 1015.86 1015.99 1016.07 1016.13 1016.18 1016.24 1016.32 1016.43 1016.56 1016.70 1016.84 1016.98 1017.13 1017.30 1017.50 1017.74 1017.99 1018.26 1018.52 1018.75 1018.94 1019.10 1019.23 1019.37 1019.53 1019.73
1010.57 1010.87 1011.30 1011.82 1012.38 1012.91 1013.37 1013.74 1014.03 1014.26 1014.46 1014.66 1014.89 1015.14 1015.41 1015.66 1015.88 1016.06 1016.18 1016.27 1016.34 1016.40 1016.48 1016.58 1016.70 1016.82 1016.94 1017.06 1017.19 1017.32 1017.49 1017.69 1017.94 1018.21 1018.49 1018.76 1019.00 1019.18 1019.33 1019.45 1019.57 1019.72 1019.91
1010.84 1011.15 1011.57 1012.06 1012.57 1013.05 1013.47 1013.81 1014.08 1014.31 1014.53 1014.77 1015.03 1015.32 1015.61 1015.89 1016.12 1016.29 1016.42 1016.51 1016.59 1016.67 1016.76 1016.87 1016.98 1017.09 1017.19 1017.29 1017.38 1017.49 1017.64 1017.83 1018.07 1018.35 1018.65 1018.93 1019.17 1019.37 1019.51 1019.62 1019.74 1019.88 1020.08
1011.10 1011.42 1011.83 1012.29 1012.75 1013.18 1013.54 1013.84 1014.10 1014.34 1014.59 1014.87 1015.18 1015.51 1015.83 1016.13 1016.37 1016.54 1016.67 1016.76 1016.83 1016.91 1017.01 1017.11 1017.22 1017.32 1017.41 1017.48 1017.54 1017.62 1017.74 1017.91 1018.14 1018.42 1018.72 1019.02 1019.28 1019.49 1019.65 1019.77 1019.89 1020.03 1020.22
1011.31 1011.64 1012.04 1012.48 1012.90 1013.27 1013.59 1013.87 1014.11 1014.37 1014.65 1014.97 1015.33 1015.70 1016.05 1016.36 1016.60 1016.77 1016.88 1016.96 1017.02 1017.10 1017.19 1017.29 1017.40 1017.49 1017.57 1017.62 1017.66 1017.72 1017.81 1017.95 1018.16 1018.43 1018.73 1019.04 1019.32 1019.56 1019.75 1019.90 1020.04 1020.18 1020.37
1011.44 1011.80 1012.21 1012.62 1013.01 1013.35 1013.64 1013.89 1014.13 1014.40 1014.71 1015.07 1015.47 1015.87 1016.24 1016.55 1016.79 1016.94 1017.03 1017.08 1017.13 1017.19 1017.27 1017.38 1017.49 1017.60 1017.68 1017.73 1017.76 1017.80 1017.87 1017.99 1018.17 1018.42 1018.71 1019.02 1019.32 1019.59 1019.82 1020.00 1020.17 1020.33 1020.52
1011.48 1011.89 1012.32 1012.73 1013.10 1013.42 1013.68 1013.93 1014.17 1014.46 1014.79 1015.18 1015.60 1016.01 1016.39 1016.69 1016.91 1017.04 1017.10 1017.13 1017.15 1017.20 1017.29 1017.40 1017.54 1017.66 1017.77 1017.84 1017.88 1017.92 1017.97 1018.07 1018.22 1018.43 1018.70 1019.00 1019.31 1019.60 1019.86 1020.09 1020.29 1020.47 1020.66
1011.46 1011.91 1012.37 1012.80 1013.17 1013.48 1013.74 1013.99 1014.24 1014.54 1014.89 1015.29 1015.71 1016.12 1016.49 1016.77 1016.96 1017.07 1017.10 1017.11 1017.13 1017.17 1017.26 1017.40 1017.56 1017.73 1017.87 1017.98 1018.05 1018.10 1018.15 1018.22 1018.33 1018.50 1018.73 1019.00 1019.30 1019.60 1019.89 1020.15 1020.38 1020.59 1020.79
1011.38 1011.89 1012.38 1012.82 1013.21 1013.53 1013.81 1014.07 1014.35 1014.65 1015.01 1015.41 1015.82 1016.21 1016.55 1016.81 1016.97 1017.06 1017.08 1017.08 1017.10 1017.15 1017.26 1017.43 1017.63 1017.84 1018.03 1018.19 1018.30 1018.37 1018.41 1018.46 1018.53 1018.65 1018.83 1019.05 1019.31 1019.60 1019.89 1020.17 1020.42 1020.66 1020.88
1011.28 1011.82 1012.34 1012.80 1013.21 1013.56 1013.88 1014.17 1014.47 1014.80 1015.16 1015.54 1015.92 1016.28 1016.59 1016.82 1016.97 1017.05 1017.07 1017.09 1017.12 1017.19 1017.33 1017.52 1017.76 1018.02 1018.26 1018.46 1018.61 1018.71 1018.76 1018.79 1018.82 1018.88 1018.98 1019.14 1019.34 1019.59 1019.86 1020.13 1020.40 1020.66 1020.89
1011.15 1011.71 1012.23 1012.72 1013.16 1013.56 1013.93 1014.28 1014.62 1014.98 1015.34 1015.70 1016.05 1016.36 1016.63 1016.84 1016.98 1017.06 1017.11 1017.15 1017.21 1017.32 1017.48 1017.70 1017.97 1018.25 1018.53 1018.77 1018.96 1019.08 1019.14 1019.16 1019.15 1019.15 1019.18 1019.25 1019.38 1019.57 1019.79 1020.04 1020.31 1020.56 1020.80
1011.00 1011.54 1012.06 1012.56 1013.05 1013.52 1013.96 1014.38 1014.79 1015.17 1015.54 1015.88 1016.19 1016.47 1016.70 1016.89 1017.03 1017.13 1017.21 1017.29 1017.39 1017.53 1017.71 1017.95 1018.22 1018.51 1018.81 1019.07 1019.28 1019.43 1019.51 1019.52 1019.49 1019.44 1019.40 1019.39 1019.43 1019.54 1019.70 1019.90 1020.14 1020.39 1020.63
1010.82 1011.31 1011.81 1012.32 1012.86 1013.41 1013.95 1014.47 1014.95 1015.39 1015.77 1016.10 1016.37 1016.61 1016.80 1016.97 1017.12 1017.25 1017.37 1017.50 1017.64 1017.80 1017.99 1018.22 1018.48 1018.76 1019.05 1019.32 1019.54 1019.71 1019.81 1019.83 1019.79 1019.71 1019.61 1019.53 1019.49 1019.51 1019.60 1019.74 1019.93 1020.15 1020.38
1010.60 1011.01 1011.47 1012.00 1012.60 1013.24 1013.89 1014.53 1015.11 1015.61 1016.02 1016.33 1016.58 1016.77 1016.93 1017.09 1017.24 1017.40 1017.57 1017.74 1017.92 1018.10 1018.29 1018.49 1018.72 1018.96 1019.22 1019.47 1019.70 1019.89 1020.01 1020.06 1020.03 1019.94 1019.81 1019.68 1019.57 1019.51 1019.52 1019.59 1019.72 1019.89 1020.10
1010.33 1010.66 1011.09 1011.63 1012.28 1013.02 1013.80 1014.56 1015.24 1015.81 1016.26 1016.57 1016.79 1016.95 1017.08 1017.22 1017.38 1017.57 1017.78 1017.99 1018.20 1018.39 1018.57 1018.74 1018.91 1019.11 1019.32 1019.54 1019.77 1019.97 1020.12 1020.21 1020.21 1020.14 1020.01 1019.85 1019.69 1019.57 1019.50 1019.49 1019.55 1019.67 1019.83
1010.04 1010.30 1010.68 1011.24 1011.95 1012.79 1013.68 1014.55 1015.34 1015.99 1016.47 1016.79 1017.00 1017.13 1017.23 1017.35 1017.52 1017.73 1017.97 1018.22 1018.46 1018.66 1018.82 1018.95 1019.07 1019.20 1019.36 1019.56 1019.77 1019.99 1020.17 1020.30 1020.36 1020.32 1020.21 1020.05 1019.87 1019.69 1019.56 1019.48 1019.47 1019.52 1019.62
1009.79 1009.98 1010.33 1010.89 1011.65 1012.56 1013.55 1014.52 1015.40 1016.11 1016.63 1016.97 1017.16 1017.27 1017.35 1017.47 1017.64 1017.87 1018.14 1018.42 1018.68 1018.88 1019.03 1019.13 1019.21 1019.29 1019.40 1019.56 1019.76 1019.98 1020.20 1020.38 1020.49 1020.51 1020.43 1020.29 1020.10 1019.89 1019.71 1019.57 1019.50 1019.48 1019.52
1009.64 1009.78 1010.10 1010.65 1011.43 1012.38 1013.43 1014.47 1015.40 1016.17 1016.72 1017.07 1017.26 1017.35 1017.43 1017.53 1017.71 1017.96 1018.26 1018.57 1018.85 1019.07 1019.22 1019.30 1019.35 1019.39 1019.46 1019.59 1019.78 1020.01 1020.25 1020.47 1020.63 1020.70 1020.67 1020.55 1020.37 1020.15 1019.94 1019.76 1019.62 1019.54 1019.51
1009.64 1009.75 1010.04 1010.56 1011.33 1012.28 1013.34 1014.40 1015.37 1016.15 1016.72 1017.08 1017.27 1017.36 1017.44 1017.55 1017.73 1018.00 1018.33 1018.67 1018.98 1019.22 1019.38 1019.47 1019.50 1019.52 1019.58 1019.69 1019.86 1020.09 1020.34 1020.59 1020.78 1020.88 1020.89 1020.80 1020.64 1020.43 1020.20 1019.99 1019.81 1019.68 1019.59
1009.83 1009.92 1010.17 1010.65 1011.37 1012.27 1013.30 1014.33 1015.28 1016.07 1016.64 1017.00 1017.20 1017.30 1017.38 1017.50 1017.70 1017.99 1018.34 1018.70 1019.04 1019.32 1019.50 1019.61 1019.65 1019.68 1019.73 1019.83 1019.99 1020.21 1020.46 1020.70 1020.91 1021.03 1021.06 1021.00 1020.86 1020.67 1020.44 1020.22 1020.01 1019.84 1019.70
Thickness
5780 5781 5780 5778 5776 5774 5773 5771 5771 5770 5770 5769 5769 5767 5766 5765 5764 5763 5762 5760 5759 5757 5756 5755 5754 5753 5753 5752 5752 5751 5749 5748 5746 5744 5742 5740 5739 5738 5737 5737 5737 5736 5735
5785 5780 5778 5777 5775 5773 5771 5770 5769 5768 5767 5767 5766 5765 5764 5763 5762 5761 5759 5758 5756 5755 5754 5753 5752 5751 5751 5750 5750 5749 5748 5746 5744 5742 5740 5739 5737 5737 5736 5735 5735 5734 5734
5785 5780 5777 5775 5773 5771 5769 5768 5767 5766 5765 5764 5764 5762 5761 5760 5759 5758 5756 5755 5754 5753 5752 5750 5750 5749 5749 5748 5748 5747 5746 5744 5743 5741 5739 5737 5736 5735 5735 5734 5734 5733 5733
5784 5779 5775 5773 5771 5769 5767 5766 5764 5763 5762 5762 5761 5760 5758 5757 5756 5755 5753 5752 5751 5750 5749 5748 5748 5747 5747 5746 5746 5745 5744 5743 5741 5739 5738 5736 5735 5734 5733 5733 5733 5732 5731
5781 5777 5774 5771 5768 5766 5764 5763 5762 5761 5760 5759 5758 5757 5755 5754 5753 5752 5750 5749 5748 5747 5746 5746 5745 5745 5745 5744 5744 5743 5742 5741 5739 5738 5736 5735 5734 5733 5732 5732 5731 5731 5730
5777 5775 5772 5769 5766 5764 5762 5760 5759 5758 5757 5756 5755 5754 5752 5751 5750 5749 5747 5746 5746 5745 5744 5743 5743 5742 5742 5742 5742 5741 5740 5739 5738 5736 5735 5734 5733 5732 5731 5730 5730 5729 5728
5773 5771 5770 5767 5764 5762 5760 5758 5757 5756 5755 5754 5753 5752 5750 5749 5747 5746 5745 5744 5743 5742 5741 5740 5740 5740 5740 5740 5740 5739 5739 5738 5736 5734 5733 5732 5732 5731 5730 5729 5728 5727 5727
5770 5768 5767 5764 5762 5760 5758 5757 5755 5754 5753 5752 5751 5749 5748 5746 5745 5744 5742 5741 5740 5739 5738 5738 5737 5737 5737 5737 5737 5737 5737 5735 5733 5732 5731 5730 5730 5729 5728 5727 5726 5726 5725
5765 5764 5763 5762 5760 5758 5756 5755 5754 5752 5751 5750 5749 5748 5746 5744 5743 5741 5740 5739 5737 5736 5735 5735 5735 5734 5734 5734 5735 5735 5735 5733 5731 5729 5728 5728 5727 5727 5726 5726 5725 5724 5723
5759 5759 5759 5758 5757 5755 5754 5753 5752 5751 5749 5748 5747 5746 5744 5742 5741 5740 5738 5736 5735 5734 5734 5733 5733 5732 5732 5732 5732 5733 5732 5730 5728 5727 5726 5725 5725 5724 5724 5724 5723 5722 5721
5753 5753 5754 5754 5754 5753 5751 5750 5750 5749 5747 5746 5745 5744 5742 5741 5739 5738 5736 5734 5733 5733 5732 5732 5731 5731 5730 5730 5730 5730 5729 5727 5726 5725 5724 5723 5723 5722 5722 5722 5721 5720 5719
5747 5749 5751 5751 5751 5750 5749 5748 5747 5746 5745 5744 5743 5741 5740 5739 5737 5736 5734 5732 5731 5731 5731 5731 5730 5729 5728 5727 5727 5726 5726 5725 5724 5722 5722 5721 5721 5720 5720 5719 5719 5718 5717
5747 5747 5748 5749 5748 5747 5747 5746 5744 5743 5743 5742 5740 5739 5738 5736 5735 5734 5733 5731 5730 5729 5729 5729 5728 5727 5726 5726 5725 5724 5723 5722 5722 5721 5720 5719 5719 5718 5718 5717 5716 5716 5715
5743 5744 5744 5745 5745 5744 5744 5743 5741 5740 5740 5739 5738 5736 5735 5734 5733 5732 5731 5729 5728 5727 5727 5726 5726 5725 5724 5724 5723 5722 5721 5720 5720 5719 5718 5718 5717 5717 5716 5715 5715 5714 5713
5739 5739 5740 5741 5741 5741 5740 5740 5738 5737 5737 5736 5735 5734 5734 5733 5731 5730 5729 5728 5727 5726 5725 5724 5724 5723 5722 5722 5721 5721 5719 5719 5718 5718 5717 5716 5716 5716 5715 5714 5713 5712 5712
5736 5735 5736 5736 5736 5737 5737 5737 5736 5736 5735 5734 5733 5732 5732 5731 5730 5728 5727 5726 5725 5725 5724 5723 5722 5721 5721 5720 5720 5720 5719 5718 5717 5716 5716 5716 5715 5715 5714 5713 5712 5711 5710
5734 5733 5733 5732 5732 5732 5733 5733 5733 5733 5732 5731 5730 5730 5730 5730 5728 5727 5726 5725 5724 5724 5723 5722 5721 5720 5719 5719 5719 5718 5718 5717 5716 5716 5715 5715 5715 5714 5713 5712 5711 5711 5709
5732 5730 5730 5731 5729 5730 5730 5730 5729 5730 5729 5729 5728 5728 5728 5728 5727 5726 5724 5724 5723 5723 5722 5720 5719 5718 5717 5717 5717 5717 5717 5716 5715 5715 5715 5715 5714 5714 5713 5712 5711 5710 5709
5730 5728 5726 5727 5727 5727 5727 5727 5727 5726 5726 5726 5725 5726 5726 5726 5725 5724 5723 5722 5722 5721 5720 5719 5717 5717 5716 5715 5716 5715 5715 5715 5715 5715 5715 5715 5714 5714 5713 5712 5711 5711 5709
5725 5724 5723 5723 5723 5724 5724 5724 5723 5723 5723 5722 5723 5723 5723 5724 5723 5723 5722 5721 5720 5719 5718 5718 5716 5715 5714 5714 5715 5714 5713 5714 5714 5714 5714 5715 5714 5714 5713 5712 5711 5711 5710
5722 5721 5721 5721 5721 5721 5721 5720 5718 5718 5719 5719 5720 5720 5721 5721 5721 5721 5721 5720 5719 5718 5717 5717 5715 5714 5712 5713 5712 5710 5711 5712 5713 5713 5714 5714 5714 5714 5713 5712 5711 5711 5710
5721 5720 5719 5720 5721 5722 5722 5721 5719 5717 5716 5717 5717 5717 5718 5719 5719 5719 5719 5718 5717 5716 5716 5716 5715 5713 5711 5711 5710 5707 5704 5706 5710 5713 5713 5713 5713 5713 5713 5712 5711 5711 5710
5719 5719 5719 5719 5719 5720 5720 5718 5716 5714 5713 5713 5713 5714 5715 5716 5717 5718 5718 5717 5716 5715 5715 5715 5715 5714 5711 5710 5710 5709 5704 5701 5704 5709 5711 5712 5712 5712 5712 5712 5711 5711 5710
5721 5720 5719 5719 5718 5718 5718 5717 5715 5712 5710 5711 5712 5712 5713 5714 5715 5716 5716 5715 5715 5714 5714 5714 5714 5714 5712 5710 5709 5709 5709 5708 5704 5703 5708 5710 5710 5711 5711 5711 5711 5710 5709
5723 5720 5720 5719 5717 5717 5717 5717 5715 5712 5712 5711 5711 5710 5710 5711 5713 5714 5714 5714 5713 5713 5713 5713 5713 5713 5712 5711 5709 5708 5707 5706 5706 5704 5702 5705 5707 5709 5710 5710 5709 5709 5708
5724 5722 5721 5719 5717 5717 5716 5716 5715 5713 5711 5710 5709 5708 5709 5709 5711 5712 5712 5712 5712 5712 5712 5711 5711 5712 5711 5710 5709 5709 5707 5706 5704 5703 5701 5701 5701 5705 5707 5708 5708 5707 5707